TimeEST,TemperatureF,Dew PointF,Humidity,Sea Level PressureIn,VisibilityMPH,Wind Direction,Wind SpeedMPH,Gust SpeedMPH,PrecipitationIn,Events,Conditions,WindDirDegrees,DateUTC
12:15 AM,39.4,31.6,74,29.98,10.0,Calm,Calm,-,N/A,,Overcast,0,2013-01-02 05:15:00
12:35 AM,38.7,31.8,76,29.98,10.0,Calm,Calm,-,N/A,,Overcast,0,2013-01-02 05:35:00
12:55 AM,39.2,31.1,73,29.96,10.0,NNE,3.5,-,N/A,,Overcast,20,2013-01-02 05:55:00
1:15 AM,39.2,31.1,73,29.97,10.0,NNW,3.5,-,N/A,,Overcast,340,2013-01-02 06:15:00
1:35 AM,38.8,31.5,75,29.97,10.0,NNW,3.5,-,N/A,,Overcast,330,2013-01-02 06:35:00
1:55 AM,38.3,31.8,77,29.98,10.0,NNW,3.5,-,N/A,,Overcast,330,2013-01-02 06:55:00
2:15 AM,37.8,32.0,80,29.99,10.0,NW,3.5,-,N/A,,Overcast,320,2013-01-02 07:15:00
2:35 AM,37.8,31.6,79,29.99,10.0,Calm,Calm,-,N/A,,Overcast,0,2013-01-02 07:35:00
2:55 AM,37.2,32.0,81,29.99,10.0,Calm,Calm,-,N/A,,Overcast,0,2013-01-02 07:55:00
3:15 AM,36.9,31.8,82,29.98,10.0,Calm,Calm,-,N/A,,Overcast,0,2013-01-02 08:15:00
3:35 AM,36.7,31.8,83,29.97,10.0,Calm,Calm,-,N/A,,Overcast,0,2013-01-02 08:35:00
3:55 AM,36.7,31.8,83,29.97,10.0,Calm,Calm,-,N/A,,Overcast,0,2013-01-02 08:55:00
4:15 AM,36.9,31.8,82,29.97,10.0,Calm,Calm,-,N/A,,Overcast,0,2013-01-02 09:15:00
4:35 AM,37.4,31.1,78,29.98,10.0,Calm,Calm,-,N/A,,Overcast,0,2013-01-02 09:35:00
4:55 AM,36.5,31.5,82,29.97,10.0,Calm,Calm,-,N/A,,Overcast,0,2013-01-02 09:55:00
5:15 AM,36.0,31.6,84,29.98,10.0,Calm,Calm,-,N/A,,Overcast,0,2013-01-02 10:15:00
5:35 AM,36.7,31.3,81,29.99,10.0,Calm,Calm,-,N/A,,Overcast,0,2013-01-02 10:35:00
5:55 AM,37.0,30.7,78,30.00,10.0,Calm,Calm,-,N/A,,Overcast,0,2013-01-02 10:55:00
6:15 AM,36.9,30.9,79,30.01,10.0,Calm,Calm,-,N/A,,Overcast,0,2013-01-02 11:15:00
6:35 AM,36.0,31.1,82,30.03,10.0,Calm,Calm,-,N/A,,Overcast,0,2013-01-02 11:35:00
6:55 AM,35.8,30.9,82,30.03,10.0,Calm,Calm,-,N/A,,Overcast,0,2013-01-02 11:55:00
7:15 AM,35.2,30.7,84,30.03,10.0,Calm,Calm,-,N/A,,Scattered Clouds,0,2013-01-02 12:15:00
7:35 AM,33.6,29.8,86,30.05,10.0,Calm,Calm,-,N/A,,Mostly Cloudy,0,2013-01-02 12:35:00
7:55 AM,34.3,30.6,86,30.05,10.0,Calm,Calm,-,N/A,,Mostly Cloudy,0,2013-01-02 12:55:00
8:15 AM,32.9,28.8,85,30.05,10.0,Calm,Calm,-,N/A,,Mostly Cloudy,0,2013-01-02 13:15:00
8:35 AM,32.0,29.3,90,30.07,10.0,Calm,Calm,-,N/A,,Scattered Clouds,0,2013-01-02 13:35:00
8:55 AM,32.4,30.0,91,30.08,7.0,Calm,Calm,-,N/A,,Mostly Cloudy,0,2013-01-02 13:55:00
9:15 AM,32.9,30.4,90,30.08,7.0,Calm,Calm,-,N/A,,Scattered Clouds,0,2013-01-02 14:15:00
9:35 AM,34.5,31.1,87,30.08,10.0,Calm,Calm,-,N/A,,Clear,0,2013-01-02 14:35:00
9:55 AM,35.8,30.6,81,30.09,10.0,ENE,3.5,-,N/A,,Clear,70,2013-01-02 14:55:00
10:15 AM,35.8,29.8,79,30.09,10.0,Calm,Calm,-,N/A,,Clear,0,2013-01-02 15:15:00
10:35 AM,36.9,30.2,77,30.09,10.0,Calm,Calm,-,N/A,,Clear,0,2013-01-02 15:35:00
10:55 AM,37.0,30.4,77,30.09,10.0,Calm,Calm,-,N/A,,Clear,0,2013-01-02 15:55:00
11:15 AM,38.1,29.7,72,30.08,10.0,ENE,3.5,-,N/A,,Clear,70,2013-01-02 16:15:00
11:35 AM,39.2,28.9,67,30.08,10.0,Calm,Calm,-,N/A,,Clear,0,2013-01-02 16:35:00
11:55 AM,40.3,30.2,67,30.07,10.0,Calm,Calm,-,N/A,,Clear,0,2013-01-02 16:55:00
12:15 PM,41.0,28.9,62,30.05,10.0,Calm,Calm,-,N/A,,Clear,0,2013-01-02 17:15:00
12:35 PM,41.4,28.6,60,30.06,10.0,SSE,4.6,-,N/A,,Clear,160,2013-01-02 17:35:00
12:55 PM,41.4,27.9,59,30.05,10.0,SSW,3.5,-,N/A,,Scattered Clouds,210,2013-01-02 17:55:00
1:15 PM,41.0,27.0,57,30.05,10.0,Calm,Calm,-,N/A,,Mostly Cloudy,0,2013-01-02 18:15:00
1:35 PM,41.2,26.8,57,30.05,10.0,Calm,Calm,-,N/A,,Scattered Clouds,0,2013-01-02 18:35:00
1:55 PM,41.7,27.0,56,30.05,10.0,Calm,Calm,-,N/A,,Clear,0,2013-01-02 18:55:00
2:15 PM,41.9,27.5,57,30.05,10.0,NNE,3.5,-,N/A,,Clear,30,2013-01-02 19:15:00
2:35 PM,41.9,25.9,53,30.05,10.0,NE,4.6,-,N/A,,Clear,40,2013-01-02 19:35:00
2:55 PM,41.4,23.0,48,30.06,10.0,NE,5.8,-,N/A,,Clear,40,2013-01-02 19:55:00
3:15 PM,41.5,21.4,45,30.07,10.0,NNE,5.8,-,N/A,,Clear,30,2013-01-02 20:15:00
3:35 PM,41.2,20.8,44,30.09,10.0,NNE,5.8,-,N/A,,Clear,30,2013-01-02 20:35:00
3:55 PM,41.0,20.5,44,30.09,10.0,NNE,4.6,-,N/A,,Clear,20,2013-01-02 20:55:00
4:15 PM,40.6,21.2,46,30.09,10.0,NE,5.8,-,N/A,,Clear,40,2013-01-02 21:15:00
4:35 PM,38.3,20.8,50,30.09,10.0,NNE,3.5,-,N/A,,Clear,20,2013-01-02 21:35:00
4:55 PM,36.5,21.9,56,30.10,10.0,Calm,Calm,-,N/A,,Clear,0,2013-01-02 21:55:00
5:15 PM,37.4,19.0,48,30.11,10.0,North,3.5,-,N/A,,Clear,10,2013-01-02 22:15:00
5:35 PM,37.0,17.4,45,30.11,10.0,NNE,4.6,-,N/A,,Clear,20,2013-01-02 22:35:00
5:55 PM,34.7,18.5,52,30.11,10.0,NNE,4.6,-,N/A,,Clear,20,2013-01-02 22:55:00
6:15 PM,33.3,19.9,58,30.12,10.0,NNE,3.5,-,N/A,,Clear,30,2013-01-02 23:15:00
6:35 PM,33.3,18.3,54,30.13,10.0,ENE,5.8,-,N/A,,Clear,60,2013-01-02 23:35:00
6:55 PM,34.9,18.5,51,30.13,10.0,ENE,5.8,-,N/A,,Clear,60,2013-01-02 23:55:00
7:15 PM,34.2,19.4,55,30.13,10.0,NNE,5.8,-,N/A,,Clear,20,2013-01-03 00:15:00
7:35 PM,34.3,19.0,54,30.13,10.0,North,5.8,-,N/A,,Clear,10,2013-01-03 00:35:00
7:55 PM,34.2,19.2,54,30.14,10.0,North,4.6,-,N/A,,Clear,10,2013-01-03 00:55:00
8:15 PM,33.8,19.4,56,30.15,10.0,North,4.6,-,N/A,,Clear,10,2013-01-03 01:15:00
8:35 PM,33.3,19.4,57,30.16,10.0,Calm,Calm,-,N/A,,Clear,0,2013-01-03 01:35:00
8:55 PM,32.0,20.3,62,30.16,10.0,Calm,Calm,-,N/A,,Clear,0,2013-01-03 01:55:00
9:15 PM,31.3,21.4,67,30.16,10.0,Calm,Calm,-,N/A,,Clear,0,2013-01-03 02:15:00
9:35 PM,31.8,21.2,65,30.18,10.0,NW,3.5,-,N/A,,Clear,320,2013-01-03 02:35:00
9:55 PM,31.5,20.7,64,30.18,10.0,Calm,Calm,-,N/A,,Clear,0,2013-01-03 02:55:00
10:15 PM,31.1,20.1,64,30.17,10.0,NNW,3.5,-,N/A,,Clear,330,2013-01-03 03:15:00
10:35 PM,29.8,19.9,67,30.17,10.0,Calm,Calm,-,N/A,,Clear,0,2013-01-03 03:35:00
10:55 PM,30.4,20.3,66,30.18,10.0,Calm,Calm,-,N/A,,Mostly Cloudy,0,2013-01-03 03:55:00
11:15 PM,30.7,20.1,65,30.19,10.0,Calm,Calm,-,N/A,,Mostly Cloudy,0,2013-01-03 04:15:00
11:35 PM,29.5,21.0,71,30.19,10.0,Calm,Calm,-,N/A,,Mostly Cloudy,0,2013-01-03 04:35:00
11:55 PM,30.2,21.0,69,30.19,10.0,Calm,Calm,-,N/A,,Overcast,0,2013-01-03 04:55:00